Tracking 19846 objects as of 19-Sep-2019
HD Live streaming from Space Station
objects crossing your sky now

CARBONIX

Track CARBONIX now!
10-day predictions


NORAD ID: 44413
Int'l Code: 2019-038AD
Perigee: 521.0 km
Apogee: 553.8 km
Inclination: 97.5 °
Period: 95.2 minutes
Semi major axis: 6908 km
RCS: Unknown
Launch date: July 5, 2019
Source: Germany (GER)
Launch site: VOSTOCHNY COSMODROME (VOSTO)
aabbcc
Your satellite tracking list
Your tracking list is empty




NASA's NSSDC Master Catalog

Two Line Element Set (TLE):
1 44413U 19038AD  19262.08224708  .00000786  00000-0  49373-4 0  9999
2 44413  97.4979 222.5880 0023723 352.9581   7.1312 15.11935386 11424
Source of the keplerian elements: AFSPC